Date,TemperatureHighF,TemperatureAvgF,TemperatureLowF,DewpointHighF,DewpointAvgF,DewpointLowF,HumidityHigh,HumidityAvg,HumidityLow,PressureMaxIn,PressureMinIn,WindSpeedMaxMPH,WindSpeedAvgMPH,GustSpeedMaxMPH,PrecipitationSumIn
2013-1-1,48,43,37,48,40,36,99,91,71,29.97,29.42,10,2,10,0.11
2013-1-2,51,44,36,51,43,35,99,98,93,30.26,29.97,6,1,6,0.01
2013-1-3,53,51,49,53,51,49,99,99,99,30.55,30.26,9,2,9,0.00
2013-1-4,51,49,47,51,48,46,99,94,84,30.58,30.53,9,3,9,0.00
2013-1-5,51,48,43,51,48,43,99,99,96,30.53,30.44,8,1,8,0.00
2013-1-6,48,45,41,47,44,41,99,99,99,30.45,30.32,5,1,5,0.01
2013-1-7,48,46,44,48,46,44,99,99,99,30.32,30.17,6,2,6,0.00
2013-1-8,53,50,47,51,49,47,99,96,88,30.20,30.11,8,2,8,0.01
2013-1-9,50,44,31,49,43,31,99,98,88,30.11,29.99,4,0,4,0.09
2013-1-10,33,31,30,33,31,30,99,99,99,29.99,29.95,1,0,1,0.00
2013-1-13,39,35,32,31,30,28,88,80,71,30.06,30.00,4,1,4,0.00
2013-1-14,37,34,31,37,33,28,99,97,87,30.01,29.53,11,2,11,0.18
2013-1-15,36,33,26,34,32,26,99,95,88,29.78,29.53,11,2,11,0.00
2013-1-16,34,28,24,32,28,24,99,97,89,29.93,29.74,5,1,5,0.00
2013-1-17,37,30,22,33,27,22,99,90,71,29.99,29.80,8,1,8,0.01
2013-1-18,35,30,28,30,28,26,99,91,72,29.80,29.33,14,5,15,0.00
2013-1-19,33,32,30,33,30,26,99,94,82,29.38,29.30,10,3,10,0.00
2013-1-20,32,31,29,32,30,27,99,96,84,29.37,29.18,8,1,8,0.00
2013-1-21,36,31,25,33,30,25,99,96,84,29.42,29.17,2,0,2,0.01
2013-1-22,36,30,22,36,29,22,99,96,83,29.54,29.41,11,2,11,0.11
2013-1-27,42,41,40,40,38,37,97,90,84,29.53,29.43,8,2,8,0.24
2013-1-28,51,44,36,50,42,35,99,93,81,29.73,29.43,18,4,18,0.17
2013-1-29,56,53,49,56,53,48,99,98,89,29.57,29.46,15,4,16,0.02
2013-1-30,54,50,44,54,45,38,99,83,58,29.96,29.42,18,5,18,0.19
2013-1-31,52,48,45,48,42,38,99,81,65,29.97,29.70,17,5,17,0.06
2013-2-1,47,42,36,44,41,36,99,95,84,29.76,29.36,10,1,10,0.25
2013-2-2,43,38,28,40,32,25,99,80,61,30.17,29.50,9,3,9,0.00
2013-2-3,49,40,28,48,38,25,99,92,82,30.18,29.81,11,2,11,0.00
2013-2-4,52,49,46,49,43,34,99,80,55,29.85,29.76,21,5,21,0.00
2013-2-10,40,36,33,40,36,33,99,99,99,29.38,29.16,17,6,17,0.28
2013-2-11,35,34,32,35,34,31,99,99,99,29.68,29.19,6,2,6,0.12
2013-2-12,36,35,34,34,30,27,99,83,72,30.05,29.68,5,2,5,0.00
2013-2-13,40,35,33,40,30,22,99,81,60,30.11,29.89,17,4,17,0.00
2013-2-14,48,43,39,42,40,38,99,92,76,29.89,29.76,16,3,16,0.04
2013-2-15,54,42,33,45,37,33,99,85,54,30.11,29.89,8,1,8,0.00
2013-2-16,53,43,35,42,37,32,98,81,47,30.16,30.10,5,0,5,0.00
2013-2-17,50,39,30,43,35,30,99,87,49,30.13,30.00,16,2,16,0.00
2013-2-18,49,39,32,40,35,31,99,87,57,30.05,29.99,10,2,10,0.00
2013-2-19,57,38,26,42,33,26,99,84,50,30.05,29.95,8,0,10,0.00
2013-2-20,42,37,34,39,32,27,99,83,62,30.17,30.01,14,4,14,0.02
2013-2-21,36,34,32,27,22,19,71,62,53,30.18,30.06,13,5,13,0.00
2013-2-22,37,34,32,26,22,19,74,63,55,30.07,29.99,9,4,9,0.00
2013-2-23,36,34,32,29,24,20,79,69,56,30.12,29.99,10,2,10,0.00
2013-2-24,36,34,33,29,28,26,85,77,69,30.18,30.10,8,2,8,0.00
2013-2-25,40,37,34,37,34,28,97,89,78,30.29,30.15,10,2,10,0.00
2013-2-26,40,38,36,40,37,36,99,99,98,30.42,30.27,8,3,13,0.00
2013-2-27,39,38,37,35,34,34,91,87,81,30.41,30.38,9,3,9,0.00
2013-2-28,46,39,34,38,36,33,95,86,71,30.40,30.24,8,3,8,0.00
2013-3-1,44,40,36,42,35,30,99,83,65,30.32,30.26,11,3,11,0.02
2013-3-2,48,37,28,35,30,26,92,76,58,30.32,30.17,8,1,8,0.00
2013-3-3,46,36,25,38,33,24,99,88,67,30.20,30.01,14,2,14,0.00
2013-3-4,51,40,32,39,36,32,99,86,62,30.02,29.64,14,2,14,0.00
2013-3-5,62,46,30,47,39,29,99,79,53,29.64,29.48,10,1,10,0.00
2013-3-6,57,50,44,47,43,39,94,79,65,29.48,29.40,6,1,8,0.00
2013-3-7,50,47,44,50,47,44,99,99,94,29.42,29.26,5,1,5,0.19
2013-3-8,50,48,47,50,48,47,99,99,99,29.45,29.28,7,1,7,0.32
2013-3-9,47,44,38,47,43,37,99,99,93,29.58,29.44,4,1,4,0.01
2013-3-10,39,36,34,37,33,28,96,88,80,29.63,29.55,13,4,13,0.01
2013-3-11,34,31,29,30,24,20,89,76,62,29.66,29.60,15,7,15,0.00
2013-3-12,41,34,28,33,22,15,89,64,40,29.73,29.62,16,6,16,0.00
2013-3-13,47,38,30,34,30,26,93,75,48,29.87,29.69,8,2,8,0.00
2013-3-14,50,38,24,37,27,22,99,68,37,29.93,29.83,9,1,10,0.00
2013-3-15,48,43,37,44,39,26,99,88,64,29.83,29.46,13,4,13,0.06
2013-3-16,47,44,42,45,43,41,99,97,88,29.46,29.17,20,7,20,0.34
2013-3-17,45,40,32,44,40,32,99,99,94,29.23,29.04,11,2,11,0.15
2013-3-18,49,37,29,48,37,28,99,99,91,29.26,29.10,2,0,3,0.22
2013-3-19,45,39,35,42,38,34,99,94,71,29.41,29.26,8,1,8,0.00
2013-3-20,47,39,36,41,37,35,99,93,77,29.91,29.41,6,1,6,0.00
2013-3-21,45,39,32,36,34,31,99,82,65,29.93,29.44,20,5,20,0.01
2013-3-22,43,38,36,38,36,33,99,90,77,29.44,29.24,16,7,16,0.11
2013-3-23,38,34,33,37,34,33,99,99,95,29.39,29.26,14,5,14,0.30
2013-3-24,34,33,31,34,28,22,99,85,61,29.84,29.37,14,5,14,0.01
2013-3-25,34,34,33,26,24,22,74,67,62,29.87,29.81,14,5,14,0.00
2013-3-26,35,34,33,26,24,22,70,66,61,29.85,29.79,12,4,12,0.00
2013-3-27,34,34,33,25,23,21,73,65,60,29.80,29.76,4,2,4,0.00
2013-3-28,42,34,27,33,25,19,93,73,50,29.85,29.74,7,1,8,0.00
2013-3-29,42,36,27,28,25,21,83,65,47,29.83,29.68,14,3,14,0.00
2013-3-30,44,37,33,32,29,24,86,72,53,29.88,29.68,8,2,10,0.00
2013-3-31,44,35,24,31,26,21,99,70,47,29.89,29.80,10,2,10,0.00
2013-4-1,44,37,33,30,26,21,84,66,43,29.81,29.73,17,5,17,0.00
2013-4-2,48,39,32,31,24,15,87,58,28,29.97,29.78,14,5,14,0.00
2013-4-3,39,36,32,32,26,22,92,66,52,29.97,29.90,14,4,14,0.00
2013-4-4,38,36,33,34,29,23,97,77,58,29.90,29.79,14,4,14,0.01
2013-4-5,46,39,35,32,28,20,84,65,39,30.03,29.79,15,4,15,0.00
2013-4-6,54,42,31,36,29,24,96,65,36,30.20,30.03,8,2,8,0.00
2013-4-7,53,41,26,35,26,20,94,60,30,30.20,29.79,12,2,12,0.00
2013-4-8,52,43,38,37,32,27,87,67,40,29.79,29.44,14,5,14,0.00
2013-4-9,48,43,38,44,41,36,99,94,81,29.45,29.27,12,3,12,0.05
2013-4-10,52,44,38,44,41,37,99,90,69,29.62,29.32,11,2,11,0.17
2013-4-11,56,47,38,49,45,38,99,94,73,29.40,29.25,10,2,11,0.08
2013-4-12,55,48,44,54,48,44,99,99,91,29.65,29.19,9,3,9,0.57
2013-4-13,53,48,38,52,47,38,99,97,79,29.81,29.65,14,4,16,0.11
2013-4-14,69,59,52,54,52,47,99,79,54,29.86,29.78,21,5,22,0.00
2013-4-15,62,55,49,52,50,47,95,82,67,29.97,29.85,11,3,11,0.00
2013-4-16,66,55,48,52,48,44,99,78,49,30.00,29.81,14,4,14,0.00
2013-4-17,66,56,48,56,52,47,99,86,62,30.00,29.67,15,4,15,0.00
2013-4-18,60,51,46,54,43,36,99,73,54,30.00,29.70,16,5,16,0.24
2013-4-19,61,49,41,46,41,35,93,74,44,30.42,29.99,12,3,12,0.00
2013-4-20,59,46,32,44,34,27,99,68,35,30.46,30.28,11,2,11,0.00
2013-4-21,65,47,30,42,36,29,98,67,36,30.27,29.92,8,2,8,0.00
2013-4-22,62,51,43,50,45,41,99,81,49,29.94,29.85,10,2,10,0.00
2013-4-23,75,61,50,54,50,47,99,72,42,30.12,29.89,10,2,10,0.00
2013-4-24,72,59,46,57,53,46,99,81,59,30.16,30.09,13,2,13,0.01
2013-4-25,76,61,50,60,53,50,99,79,45,30.16,29.91,14,2,14,0.00
2013-4-26,59,50,42,51,40,28,99,71,39,29.93,29.80,14,2,14,0.17
2013-4-27,55,44,35,46,37,31,99,79,50,30.01,29.78,10,1,10,0.05
2013-4-28,56,45,31,42,35,30,99,71,44,30.01,29.80,8,2,8,0.00
2013-4-29,61,52,44,45,38,34,93,62,38,30.08,29.79,11,3,11,0.00
2013-4-30,61,50,37,44,38,32,94,65,35,30.22,30.07,10,2,11,0.00
2013-5-1,68,52,40,45,39,31,99,67,29,30.22,30.05,7,2,8,0.00
2013-5-3,57,54,51,44,42,42,70,64,61,29.97,29.96,7,2,7,0.00
2013-5-4,66,55,46,56,43,36,90,68,39,30.04,29.88,13,3,13,0.01
2013-5-5,70,57,43,53,48,39,96,73,54,30.10,30.04,7,1,7,0.00
2013-5-6,76,61,52,55,50,45,91,69,43,30.08,29.93,7,1,7,0.00
2013-5-7,73,60,44,52,47,42,99,64,40,29.98,29.75,11,2,11,0.00
2013-5-8,65,57,51,60,52,45,99,82,63,29.75,29.59,11,2,11,0.01
2013-5-9,59,52,44,53,45,40,99,81,54,29.75,29.58,17,5,17,0.05
2013-5-10,66,55,49,51,49,45,96,80,48,29.84,29.59,12,4,14,0.00
2013-5-11,57,50,43,54,46,40,99,88,60,29.83,29.69,16,3,16,0.22
2013-5-12,61,50,41,53,45,39,99,85,46,29.92,29.81,14,3,14,0.01
2013-5-13,62,54,47,52,45,37,99,74,44,29.82,29.70,16,4,16,0.01
2013-5-14,53,48,45,50,45,40,99,88,67,29.73,29.12,19,3,19,0.11
2013-5-15,59,49,44,46,42,39,97,79,51,29.45,29.06,17,4,19,0.00
2013-5-16,65,51,37,48,41,34,99,70,40,29.47,29.37,11,2,11,0.00
2013-5-17,55,49,40,50,44,39,99,82,68,29.72,29.47,5,1,6,0.00
2013-5-18,66,54,47,48,46,43,90,74,51,29.71,29.61,10,1,10,0.00
2013-5-19,71,57,46,53,49,45,99,77,51,29.79,29.67,8,1,8,0.00
2013-5-20,63,58,52,61,56,51,99,95,88,29.81,29.73,6,2,6,0.00
2013-5-21,62,56,53,60,53,49,95,88,74,29.98,29.80,7,2,7,0.00
2013-5-22,60,53,48,51,46,36,97,77,53,30.01,29.92,11,2,11,0.00
2013-5-23,58,48,43,41,37,31,79,66,43,29.92,29.78,12,3,12,0.00
2013-5-24,48,44,42,48,42,38,99,92,79,29.88,29.53,11,3,11,0.30
2013-5-25,65,56,44,46,42,38,82,60,43,30.07,30.03,7,2,7,0.00
2013-5-26,74,56,39,47,41,35,99,61,33,30.05,29.86,11,2,11,0.00
2013-5-27,65,55,42,48,42,36,90,63,40,29.87,29.53,17,3,17,0.00
2013-5-28,55,51,49,55,50,42,99,94,67,29.53,29.38,4,0,4,0.63
2013-5-29,57,52,47,54,51,46,99,96,80,29.66,29.46,8,1,8,0.05
2013-5-30,61,55,52,58,54,52,99,97,86,29.90,29.64,8,2,8,0.30
2013-5-31,75,61,52,60,55,52,99,83,56,30.02,29.90,7,2,7,0.00
2013-6-1,71,59,52,53,48,44,86,68,47,30.22,30.02,8,2,8,0.00
2013-6-2,72,58,47,50,46,42,94,65,39,30.35,30.20,7,1,7,0.00
2013-6-3,69,56,43,50,46,42,99,70,46,30.40,30.31,11,2,12,0.00
2013-6-4,71,59,46,50,45,39,85,62,43,30.33,30.11,11,3,11,0.00
2013-6-5,73,58,48,53,49,46,94,73,46,30.13,29.98,11,2,11,0.00
2013-6-6,73,60,48,57,50,46,97,74,52,30.10,30.02,11,3,11,0.00
2013-6-7,71,59,50,58,51,46,99,77,56,30.13,30.06,11,3,11,0.02
2013-6-8,67,57,48,51,48,46,94,74,52,30.12,29.97,11,4,12,0.00
2013-6-9,59,54,51,51,47,44,88,77,68,29.98,29.86,7,3,7,0.00
2013-6-10,60,55,51,50,46,43,84,73,63,29.91,29.85,7,1,7,0.00
2013-6-11,63,57,48,63,56,46,99,95,84,29.89,29.79,10,2,10,0.00
2013-6-12,63,60,57,63,59,56,99,97,84,29.80,29.70,11,4,13,0.02
2013-6-13,67,59,53,58,52,47,99,79,63,29.95,29.69,17,5,17,0.01
2013-6-14,68,58,47,56,50,43,97,79,44,29.98,29.70,12,3,12,0.00
2013-6-15,64,57,51,59,53,46,99,87,59,29.80,29.59,14,4,14,0.39
2013-6-16,67,58,52,55,52,48,98,80,59,29.87,29.78,8,2,8,0.00
2013-6-17,70,62,54,56,52,50,94,74,52,29.87,29.80,11,3,11,0.00
2013-6-18,72,63,56,66,60,54,99,90,78,29.88,29.80,8,1,8,0.00
2013-6-19,82,69,59,69,63,59,99,84,55,29.88,29.80,8,1,8,0.01
2013-6-20,65,63,62,64,62,61,99,98,95,29.85,29.79,9,2,9,0.00
2013-12-29,46,43,40,46,41,39,99,94,84,29.75,29.67,11,2,11,0.00
2013-12-30,50,48,43,50,47,43,99,98,93,29.67,29.33,29,6,29,0.14
2013-12-31,51,46,42,51,46,42,99,99,96,29.51,29.19,18,4,18,0.17
2014-1-1,54,48,43,52,48,42,99,99,99,29.25,28.68,24,7,24,0.43
2014-1-2,56,48,42,51,47,42,99,97,84,29.11,28.72,21,3,21,0.46